Location: Boiro
(42.6475°N, 8.8834°W)
Time: 01:10:34
(UTC+01:00)

Explorer 11/Cluster Stage 4 - Visible Passes

Search period start: 30 November 2021 00:00
Search period end: 10 December 2021 00:00
Orbit: 467 x 1255 km, 28.8° (Epoch: 29 November)

Date Brightness Start Highest point End Pass type
(mag) Time Alt. Az. Time Alt. Az. Time Alt. Az.
30 Nov 9.0 05:11:42 22° SSE 05:11:42 22° SSE 05:17:26 10° ESE visible
30 Nov 8.8 06:53:49 13° SW 06:59:44 30° S 07:06:33 10° ESE visible
01 Dec 9.1 05:01:12 22° SSE 05:01:12 22° SSE 05:05:54 10° ESE visible
01 Dec 8.8 06:43:18 17° SW 06:48:06 30° S 06:54:56 10° SE visible
02 Dec 9.2 04:50:39 21° SE 04:50:39 21° SE 04:54:20 10° ESE visible
02 Dec 8.7 06:32:45 20° SW 06:36:29 29° S 06:43:17 10° SE visible
03 Dec 9.3 04:40:04 18° SE 04:40:04 18° SE 04:42:42 10° ESE visible
03 Dec 8.6 06:22:10 23° SW 06:24:52 28° S 06:31:35 10° SE visible
03 Dec 9.2 08:07:32 10° WSW 08:13:09 21° SSW 08:18:50 10° SSE visible
04 Dec 9.5 04:29:28 15° SE 04:29:28 15° SE 04:31:03 10° ESE visible
04 Dec 8.6 06:11:34 25° SSW 06:13:16 27° S 06:19:49 10° SE visible
04 Dec 9.3 07:56:18 10° WSW 08:01:30 19° SSW 08:06:52 10° SSE visible
05 Dec 9.7 04:18:51 12° ESE 04:18:51 12° ESE 04:19:22 10° ESE visible
05 Dec 8.6 06:00:57 26° SSW 06:01:41 26° S 06:08:01 10° SE visible
05 Dec 9.3 07:45:08 10° WSW 07:49:53 17° SSW 07:54:48 10° SSE visible
06 Dec 8.7 05:50:21 24° S 05:50:21 24° S 05:56:10 10° SE visible
06 Dec 9.3 07:34:07 10° SW 07:38:16 15° SSW 07:42:33 10° S visible
07 Dec 8.9 05:39:46 22° S 05:39:46 22° S 05:44:15 10° SE visible
07 Dec 9.3 07:23:20 10° SW 07:26:39 13° SSW 07:30:06 10° S visible
08 Dec 9.1 05:29:11 18° SSE 05:29:11 18° SSE 05:32:16 10° SE visible
08 Dec 9.3 07:13:00 10° SW 07:15:03 11° SSW 07:17:10 10° S visible
09 Dec 9.3 05:18:37 14° SSE 05:18:37 14° SSE 05:20:12 10° SSE visible
